Change the Weather History Date:

Monday, January 27, 2014

  Actual Average (KGLH) Record (KGLH)
Temperature  
Mean Temperature 34 °F 43 °F  
Max Temperature 45 °F 53 °F 79 °F (1944)
Min Temperature 23 °F 33 °F 15 °F (1936)
Degree Days  
Heating Degree Days 31 23  
Month to date heating degree days 618  
Since 1 July heating degree days 1702  
Cooling Degree Days 0 0  
Month to date cooling degree days 0  
Year to date cooling degree days 0  
Moisture  
Dew Point 18 °F    
Average Humidity 55    
Maximum Humidity 88    
Minimum Humidity 31    
Precipitation  
Precipitation 0.00 in 0.18 in 1.98 in (1962)
Month to date precipitation 4.25  
Year to date precipitation 4.25  
Sea Level Pressure  
Sea Level Pressure 30.14 in    
Wind  
Wind Speed 15 mph (NNE)    
Max Wind Speed 36 mph    
Max Gust Speed 41 mph    
Visibility 10 miles    
Events      
T = Trace of Precipitation, MM = Missing Value Source: NWS Daily Summary

Daily Weather History Graph

Daily Weather History Graph

Search for Another Location

Airport or City:

Trip Planner

Search our weather history database for the weather conditions in past years. The results will help you decide how hot, cold, wet, or windy it might be!

Date:

Astronomy

Jan. 27, 2014 Rise Set
Actual Time 7:02 AM CST 5:29 PM CST
Civil Twilight 6:36 AM CST 5:55 PM CST
Nautical Twilight 6:06 AM CST 6:25 PM CST
Astronomical Twilight 5:36 AM CST 6:55 PM CST
Moon 3:42 AM CST (1/27) 2:17 PM CST (1/27)
Length of Visible Light 11h 19m
Length of Day
10h 26m
Waning Crescent, 14% of the Moon is Illuminated
Jan 27
Waning Crescent
Jan 30
New
Feb 6
First Quarter
Feb 14
Full
Feb 22
Last Quarter

Hourly Weather History & Observations

Time (CST) Temp. Windchill Dew Point Humidity Pressure Visibility Wind Dir Wind Speed Gust Speed Precip Events Conditions
12:10 AM 44.6 °F 42.2 °F 35.1 °F 69% 29.82 in 10.0 mi SSE 4.6 mph - N/A   Clear
12:35 AM 45.0 °F 43.5 °F 35.2 °F 69% 29.82 in 10.0 mi South 3.5 mph - N/A   Scattered Clouds
12:55 AM 44.6 °F 42.2 °F 35.1 °F 69% 29.82 in 10.0 mi South 4.6 mph - N/A   Clear
1:15 AM 43.7 °F 42.1 °F 34.9 °F 71% 29.83 in 10.0 mi South 3.5 mph - N/A   Clear
1:35 AM 42.6 °F - 34.7 °F 74% 29.83 in 10.0 mi Calm Calm - N/A   Clear
1:50 AM 42.4 °F - 34.9 °F 75% 29.84 in 10.0 mi Calm Calm - N/A   Scattered Clouds
2:15 AM 38.3 °F 33.2 °F 33.8 °F 84% 29.85 in 10.0 mi North 6.9 mph - N/A   Scattered Clouds
2:35 AM 37.8 °F 35.3 °F 33.4 °F 84% 29.86 in 10.0 mi North 3.5 mph - N/A   Clear
2:55 AM 36.1 °F 30.6 °F 32.2 °F 86% 29.86 in 10.0 mi North 6.9 mph - N/A   Clear
3:15 AM 36.3 °F 31.6 °F 32.5 °F 86% 29.87 in 10.0 mi North 5.8 mph - N/A   Clear
3:35 AM 35.8 °F - 32.2 °F 87% 29.87 in 10.0 mi Calm Calm - N/A   Clear
3:55 AM 36.9 °F 34.3 °F 32.5 °F 84% 29.88 in 10.0 mi North 3.5 mph - N/A   Clear
4:15 AM 36.7 °F 32.9 °F 32.5 °F 85% 29.89 in 10.0 mi North 4.6 mph - N/A   Clear
4:35 AM 35.6 °F 31.7 °F 32.4 °F 88% 29.91 in 10.0 mi North 4.6 mph - N/A   Clear
4:55 AM 43.7 °F 36.0 °F 35.8 °F 74% 29.93 in 10.0 mi North 17.3 mph 25.3 mph N/A   Clear
5:15 AM 43.2 °F 33.8 °F 34.9 °F 73% 29.95 in 10.0 mi North 24.2 mph 36.8 mph N/A   Clear
5:35 AM 42.4 °F 32.4 °F 33.1 °F 69% 29.97 in 10.0 mi North 26.5 mph 34.5 mph N/A   Clear
5:55 AM 41.0 °F 30.7 °F 32.4 °F 71% 29.99 in 10.0 mi NNE 25.3 mph 33.4 mph N/A   Clear
6:15 AM 39.9 °F 30.0 °F 30.9 °F 70% 30.01 in 10.0 mi NNE 21.9 mph 35.7 mph N/A   Clear
6:35 AM 38.5 °F 28.3 °F 30.6 °F 73% 30.03 in 10.0 mi NNE 20.7 mph 29.9 mph N/A   Clear
6:55 AM 37.4 °F 25.4 °F 26.8 °F 66% 30.06 in 10.0 mi NNE 27.6 mph 38.0 mph N/A   Clear
7:15 AM 36.3 °F 23.1 °F 26.4 °F 67% 30.09 in 10.0 mi North 32.2 mph 39.1 mph N/A   Clear
7:35 AM 35.8 °F 23.2 °F 25.5 °F 66% 30.11 in 10.0 mi NNE 27.6 mph 35.7 mph N/A   Clear
7:55 AM 35.6 °F 21.5 °F 24.8 °F 65% 30.12 in 10.0 mi NNE 35.7 mph 40.3 mph N/A   Clear
8:15 AM 35.1 °F 22.0 °F 23.7 °F 63% 30.15 in 10.0 mi NNE 28.8 mph 36.8 mph N/A   Clear
8:35 AM 35.1 °F 21.2 °F 23.0 °F 61% 30.15 in 10.0 mi NNE 33.4 mph 39.1 mph N/A   Clear
8:55 AM 35.1 °F 21.2 °F 21.2 °F 57% 30.17 in 10.0 mi NNE 33.4 mph 41.4 mph N/A   Clear
9:15 AM 35.6 °F 22.5 °F 21.6 °F 57% 30.17 in 10.0 mi North 29.9 mph 35.7 mph N/A   Clear
9:35 AM 34.9 °F 21.5 °F 17.2 °F 49% 30.19 in 10.0 mi NNE 29.9 mph 38.0 mph N/A   Clear
9:55 AM 35.4 °F 21.8 °F 16.7 °F 47% 30.19 in 10.0 mi North 32.2 mph 38.0 mph N/A   Clear
10:15 AM 34.9 °F 20.9 °F 12.9 °F 40% 30.20 in 10.0 mi North 33.4 mph 40.3 mph N/A   Clear
10:35 AM 35.4 °F 22.1 °F 11.3 °F 37% 30.21 in 10.0 mi NNE 31.1 mph 41.4 mph N/A   Clear
3:15 PM 33.8 °F 21.6 °F 5.7 °F 31% 30.22 in 10.0 mi North 23.0 mph 32.2 mph N/A   Clear
3:35 PM 33.4 °F 20.6 °F 6.1 °F 32% 30.23 in 10.0 mi North 25.3 mph 32.2 mph N/A   Clear
3:55 PM 32.4 °F 19.7 °F 5.7 °F 33% 30.23 in 10.0 mi North 23.0 mph 31.1 mph N/A   Clear
4:15 PM 32.0 °F 18.1 °F 4.8 °F 32% 30.24 in 10.0 mi North 27.6 mph 32.2 mph N/A   Clear
4:35 PM 31.1 °F 18.0 °F 5.7 °F 34% 30.26 in 10.0 mi North 23.0 mph - N/A   Clear
4:55 PM 30.6 °F 17.9 °F 6.6 °F 36% 30.27 in 10.0 mi NNE 20.7 mph 28.8 mph N/A   Clear
5:15 PM 28.9 °F 16.1 °F 5.9 °F 38% 30.28 in 10.0 mi NNE 19.6 mph 25.3 mph N/A   Clear
5:35 PM 28.2 °F 13.9 °F 5.5 °F 38% 30.28 in 10.0 mi NNE 24.2 mph - N/A   Clear
5:55 PM 27.3 °F 13.0 °F 5.9 °F 40% 30.30 in 10.0 mi North 23.0 mph 29.9 mph N/A   Clear
6:15 PM 27.1 °F 12.7 °F 5.7 °F 40% 30.31 in 10.0 mi NNE 23.0 mph - N/A   Clear
6:35 PM 26.6 °F 11.4 °F 5.4 °F 40% 30.30 in 10.0 mi NNE 25.3 mph 29.9 mph N/A   Clear
6:55 PM 26.6 °F 12.4 °F 5.7 °F 41% 30.31 in 10.0 mi North 21.9 mph - N/A   Clear
7:15 PM 25.7 °F 10.8 °F 4.8 °F 41% 30.32 in 10.0 mi North 23.0 mph 29.9 mph N/A   Clear
7:35 PM 25.3 °F 11.0 °F 3.7 °F 40% 30.33 in 10.0 mi North 20.7 mph 28.8 mph N/A   Clear
7:55 PM 25.2 °F 10.8 °F 3.7 °F 40% 30.33 in 10.0 mi North 20.7 mph 26.5 mph N/A   Clear
8:15 PM 24.8 °F 10.3 °F 3.0 °F 39% 30.34 in 10.0 mi North 20.7 mph - N/A   Clear
8:35 PM 24.8 °F 10.3 °F 4.1 °F 41% 30.33 in 10.0 mi NNE 20.7 mph 25.3 mph N/A   Clear
8:55 PM 24.6 °F 10.9 °F 3.9 °F 41% 30.35 in 10.0 mi North 18.4 mph 25.3 mph N/A   Clear
9:15 PM 24.4 °F 8.8 °F 3.0 °F 40% 30.35 in 10.0 mi NNE 24.2 mph 28.8 mph N/A   Clear
9:35 PM 24.3 °F 8.9 °F 3.4 °F 41% 30.34 in 10.0 mi NNE 23.0 mph 27.6 mph N/A   Clear
9:55 PM 23.9 °F 9.1 °F 3.2 °F 41% 30.34 in 10.0 mi NNE 20.7 mph 27.6 mph N/A   Clear
10:15 PM 23.7 °F 8.5 °F 3.0 °F 41% 30.34 in 10.0 mi North 21.9 mph 25.3 mph N/A   Clear
10:35 PM 23.7 °F 8.9 °F 2.5 °F 40% 30.34 in 10.0 mi NNE 20.7 mph 24.2 mph N/A   Clear
10:55 PM 23.5 °F 8.7 °F 2.3 °F 40% 30.35 in 10.0 mi NNE 20.7 mph 27.6 mph N/A   Clear
11:15 PM 23.5 °F 9.0 °F 2.7 °F 41% 30.35 in 10.0 mi NNE 19.6 mph 25.3 mph N/A   Clear
11:35 PM 23.5 °F 9.4 °F 2.5 °F 40% 30.35 in 10.0 mi NNE 18.4 mph 25.3 mph N/A   Clear
11:55 PM 23.5 °F 8.7 °F 1.4 °F 38% 30.34 in 10.0 mi NNE 20.7 mph - N/A   Clear